Previous Day | Next Day | Return to data request page.
                  HOURLY WEATHER FOR ST. LOUIS
                         WED FEB 12 2014
                              (CST)

        SKY/WX    TMP DP  RH WIND       PRES   REMARKS
1255 AM PTCLDY     9  -1  64 E6        30.33F WCI  -1          
 155 AM PTCLDY     9   0  67 E3        30.32F                  
 255 AM FAIR       6  -1  73 E5        30.29F WCI  -3          
 355 AM PTCLDY     7  -1  70 E3        30.27F                  
 455 AM PTCLDY     6  -1  73 CALM      30.26F                  
 555 AM PTCLDY     6  -1  73 E6        30.24F WCI  -4          6HR MIN TEMP:   4; 6HR MAX TEMP:  11;                  
 655 AM PTCLDY     8   1  73 CALM      30.25R                  
 755 AM PTSUNNY    9   2  73 E7        30.24F WCI  -2          
 855 AM PTSUNNY   14   4  64 E5        30.23F WCI   6          
 955 AM PTSUNNY   20   6  55 CALM      30.24R                  
1055 AM PTSUNNY   24   9  52 CALM      30.20F                  
1155 AM PTSUNNY   28  11  48 CALM      30.18F                  6HR MIN TEMP:   6; 6HR MAX TEMP:  28;                  
1255 PM PTSUNNY   32  10  40 CALM      30.14F                  
 155 PM PTSUNNY   32   7  35 E5        30.09F WCI  27          
 255 PM PTSUNNY   33   5  30 E5        30.07F WCI  29          
 355 PM NOT AVBL                                               
 455 PM PTCLDY    32   8  36 E6        30.05  WCI  26          
 555 PM PTCLDY    29  10  45 E7        30.05S WCI  22          6HR MIN TEMP:  27; 6HR MAX TEMP:  34;                  
 655 PM PTCLDY    27  10  49 E5        30.06R WCI  22          
 755 PM PTCLDY    25  10  53 CALM      30.07R                  
 855 PM PTCLDY    22   9  57 E5        30.05F WCI  16          
 955 PM PTCLDY    20  10  65 SE7       30.01F WCI  11          
1055 PM PTCLDY    24  11  57 CALM      30.02R                  
1155 PM PTCLDY    17   8  67 CALM      30.02S                  6HR MIN TEMP:  17; 6HR MAX TEMP:  30;